Location: Charleville
(26.4021°S, 146.2454°E)
Time: 15:27:56
(UTC+10:00)

BlueWalker 3 - Visible Passes

Search period start: 04 March 2024 00:00
Search period end: 14 March 2024 00:00
Orbit: 485 x 499 km, 53.2° (Epoch: 03 March)

Date Brightness Start Highest point End Pass type
(mag) Time Alt. Az. Time Alt. Az. Time Alt. Az.
12 Mar 3.4 05:42:26 10° SSW 05:46:08 40° SE 05:49:47 10° ENE visible
13 Mar 3.4 05:18:27 10° SSW 05:22:06 38° SE 05:25:44 10° ENE visible
13 Mar 4.6 20:34:06 10° NW 20:34:34 13° NW 20:34:34 13° NW visible
